Home > Weather > Sandpoint > Past weeks

Flag for U.S.A. Weather for the Past 2 Weeks in Sandpoint, Idaho, U.S.A.

Now
32 °F

Overcast.


Feels Like: 32 °F
Forecast: 25 / 44 °F
Wind: No wind

Location: Sandpoint Airport

Current Time: Feb 8, 2016 at 4:44:49 AM

Latest Report: Feb 8, 2016 at 4:15 AM


Visibility: 10 mi

Pressure: 30.65 "Hg (28.31 "Hg at 636m altitude)

Humidity: 100%

Dew point: 32 °F

Location of SandpointLocation

Historic Weather in Sandpoint — Graph

°F

Sandpoint Temperature Yesterday

Maximum temperature yesterday: 39 °F (at 2:55 PM)
Minimum temperature yesterday: 25 °F (at 3:15 AM)
Average temperature yesterday: 31 °F

High & Low Weather Summary for the Past Weeks

 TemperatureHumidityPressure
High41 °F (Jan 24, 1:55 PM)100% (Jan 24, 3:15 AM)30.67 "Hg (Jan 24, 3:15 AM)
Low19 °F (Feb 3, 1:55 AM)65% (Feb 6, 12:35 PM)29.60 "Hg (Jan 29, 1:55 PM)
Average33 °F94%30.16 "Hg
* Reported Jan 24 3:15 AM — Feb 8 3:55 AM, Sandpoint, Weather by CustomWeather, © 2016

Note: Actual official high and low records may vary slightly from our data, if they occured in-between our weather recording intervals... More about our weather records

Advertising

Sandpoint Weather History for the Previous 24 Hours

 ConditionsComfort  
Time TempWeatherWind HumidityBarometerVisibility
3:55 AM
Mon, Feb 8
32 °FOvercast.No wind100%30.65 "Hg10 mi
3:35 AM32 °FMostly cloudy.No wind100%30.65 "Hg10 mi
3:15 AM32 °FMostly cloudy.No wind93%30.65 "Hg10 mi
2:55 AM32 °FMostly cloudy.No wind100%30.65 "Hg10 mi
2:35 AM30 °FOvercast.No wind100%30.65 "Hg10 mi
2:15 AM30 °FMostly cloudy.No wind100%30.64 "Hg10 mi
1:55 AM32 °FMostly cloudy.No wind93%30.65 "Hg10 mi
1:35 AM30 °FOvercast.No wind100%30.65 "Hg10 mi
1:15 AM30 °FOvercast.No wind100%30.64 "Hg10 mi
12:55 AM30 °FOvercast.No wind100%30.65 "Hg10 mi
12:35 AM30 °FOvercast.No wind100%30.66 "Hg10 mi
12:15 AM30 °FOvercast.No wind100%30.67 "Hg10 mi
11:55 PM
Sun, Feb 7
28 °FOvercast.No wind100%30.66 "Hg10 mi
11:35 PM28 °FPassing clouds.No wind100%30.66 "Hg10 mi
11:15 PM28 °FClear.No wind100%30.66 "Hg10 mi
10:55 PM30 °FClear.No wind100%30.66 "Hg10 mi
10:35 PM28 °FClear.No wind100%30.66 "Hg7 mi
10:15 PM30 °FClear.No wind100%30.66 "Hg10 mi
9:55 PM30 °FClear.No wind100%30.65 "Hg7 mi
9:35 PM30 °FClear.No wind100%30.65 "Hg10 mi
9:15 PM30 °FClear.No wind100%30.65 "Hg10 mi
8:55 PM32 °FClear.No wind100%30.65 "Hg10 mi
8:15 PM32 °FPassing clouds.No wind100%30.65 "Hg10 mi
7:15 PM36 °FOvercast.3 mph87%30.65 "Hg10 mi
6:35 PM36 °FOvercast.3 mph87%30.64 "Hg10 mi
5:55 PM36 °FOvercast.No wind87%30.63 "Hg10 mi
4:55 PM37 °FOvercast.No wind75%30.62 "Hg10 mi
4:15 PM39 °FMostly cloudy.3 mph70%30.62 "Hg10 mi
3:55 PM39 °FMore clouds than sun.3 mph70%30.62 "Hg10 mi
3:15 PM39 °FOvercast.No wind70%30.63 "Hg10 mi
2:55 PM39 °FMostly cloudy.No wind70%30.62 "Hg10 mi
2:35 PM37 °FBroken clouds.No wind75%30.62 "Hg10 mi
2:15 PM37 °FPartly sunny.3 mph75%30.62 "Hg10 mi
1:55 PM37 °FPartly sunny.5 mph81%30.62 "Hg10 mi
1:35 PM37 °FScattered clouds.No wind81%30.61 "Hg10 mi
1:15 PM37 °FScattered clouds.No wind75%30.62 "Hg10 mi
12:55 PM37 °FScattered clouds.No wind75%30.61 "Hg10 mi
12:35 PM37 °FSunny.3 mph75%30.62 "Hg10 mi
12:15 PM36 °FSunny.No wind81%30.63 "Hg10 mi
11:55 AM36 °FSunny.No wind81%30.62 "Hg10 mi
11:35 AM36 °FSunny.No wind81%30.63 "Hg10 mi
11:15 AM36 °FSunny.No wind81%30.64 "Hg10 mi
10:55 AM34 °FSunny.No wind93%30.64 "Hg10 mi
10:35 AM32 °FSunny.No wind100%30.64 "Hg10 mi
10:15 AM32 °FSunny.No wind93%30.63 "Hg10 mi
9:55 AM32 °FSunny.No wind93%30.63 "Hg10 mi
9:35 AM30 °FScattered clouds.No wind93%30.63 "Hg10 mi
9:15 AM28 °FMostly cloudy.No wind100%30.62 "Hg10 mi
8:55 AM28 °FPartly sunny.No wind100%30.62 "Hg10 mi
8:35 AM28 °FSunny.No wind100%30.62 "Hg10 mi
8:15 AM27 °FSunny.No wind100%30.61 "Hg10 mi
7:55 AM27 °FScattered clouds.No wind100%30.61 "Hg10 mi
7:15 AM27 °FOvercast.No wind100%30.58 "Hg10 mi
6:55 AM27 °FOvercast.No wind100%30.57 "Hg10 mi
6:35 AM27 °FOvercast.No wind100%30.57 "Hg10 mi
6:15 AM25 °FPassing clouds.No wind100%30.58 "Hg10 mi
5:55 AM25 °FPassing clouds.No wind100%30.57 "Hg10 mi
5:15 AM25 °FClear.No wind100%30.56 "Hg10 mi
4:55 AM25 °FClear.No wind100%30.55 "Hg10 mi
4:35 AM25 °FClear.No wind100%30.54 "Hg10 mi
4:15 AM27 °FPassing clouds.No wind100%30.53 "Hg10 mi
Weather by CustomWeather, © 2016

See weather overviewHow to use our weather pages